This is the latest recevied weather packets stored in our database for station/object W1GK. If no packets are shown the sender has not sent any weather packets the latest 10 day(s).
| Time | Temp. | Humidity | Pressure | Rain* | Wind** | Luminosity | Snow |
|---|---|---|---|---|---|---|---|
| 1787498399 | 33.89° C | 20% | 1016.1 hPa | 0 mm | - | 367 W/m² | - |
| 1787497798 | 33.89° C | 20% | 1015.9 hPa | 0 mm | - | 338 W/m² | - |
| 1787497199 | 33.33° C | 21% | 1015.9 hPa | 0 mm | - | 295 W/m² | - |
| 1787496598 | 32.78° C | 21% | 1015.8 hPa | 0 mm | - | 255 W/m² | - |
| 1787495998 | 32.22° C | 22% | 1015.8 hPa | 0 mm | - | 229 W/m² | - |
| 1787495398 | 32.22° C | 22% | 1015.8 hPa | 0 mm | - | 200 W/m² | - |
| 1787494799 | 31.67° C | 22% | 1015.7 hPa | 0 mm | - | 169 W/m² | - |
| 1787494198 | 31.67° C | 23% | 1015.7 hPa | 0 mm | - | 149 W/m² | - |
| 1787493601 | 31.11° C | 23% | 1015.5 hPa | 0 mm | - | 123 W/m² | - |
| 1787492998 | 30.56° C | 23% | 1015.5 hPa | 0 mm | - | 98 W/m² | - |
| 1787492400 | 30.56° C | 23% | 1015.4 hPa | 0 mm | - | 32 W/m² | - |
| 1787491799 | 30.56° C | 23% | 1015.2 hPa | 0 mm | - | 23 W/m² | - |
| 1787491197 | 30.56° C | 23% | 1014.9 hPa | 0 mm | - | 9 W/m² | - |
| 1787490598 | 30.56° C | 23% | 1014.9 hPa | 0 mm | - | 5 W/m² | - |
| 1787489998 | 31.11° C | 23% | 1014.8 hPa | 0 mm | - | 0 W/m² | - |
| 1787489396 | 31.11° C | 23% | 1014.7 hPa | 0 mm | - | 0 W/m² | - |
| 1787488797 | 31.11° C | 23% | 1014.6 hPa | 0 mm | - | 0 W/m² | - |
| 1787488196 | 31.11° C | 22% | 1014.5 hPa | 0 mm | - | 0 W/m² | - |
| 1787487596 | 31.11° C | 22% | 1014.4 hPa | 0 mm | - | 0 W/m² | - |
| 1787486996 | 31.11° C | 22% | 1014.4 hPa | 0 mm | - | 0 W/m² | - |
| 1787486400 | 31.11° C | 23% | 1014.3 hPa | 0 mm | - | 0 W/m² | - |
| 1787485798 | 31.11° C | 22% | 1014.4 hPa | 0 mm | - | 0 W/m² | - |
| 1787485197 | 31.11° C | 23% | 1014.4 hPa | 0 mm | - | 0 W/m² | - |
| 1787484598 | 31.11° C | 22% | 1014.4 hPa | 0 mm | - | 0 W/m² | - |
| 1787483997 | 30.56° C | 23% | 1014.3 hPa | 0 mm | - | 0 W/m² | - |
* Rain latest hour (hover to see other rain measurements)
** Current wind speed in m/s (hover to see current wind gust speed)